Tracking 32420 objects as of 9-Dec-2025
HD Live streaming from Space Station
objects crossing your sky now

STARLINK-3998

Track STARLINK-3998 now!
10-day predictions
STARLINK-3998 is classified as:


NORAD ID: 52610
Int'l Code: 2022-052N
Perigee: 545.9 km
Apogee: 547.9 km
Inclination: 53.2 °
Period: 95.4 minutes
Semi major axis: 6917 km
RCS: Unknown
Launch date: May 14, 2022
Source: United States (US)
Launch site: AIR FORCE EASTERN TEST RANGE (AFETR)
Your satellite tracking list
Your tracking list is empty




NASA's NSSDC Master Catalog

Two Line Element Set (TLE):
1 52610U 22052N   25342.67277071  .00002325  00000-0  16417-3 0  9992
2 52610  53.2181 332.7137 0001434 101.3975 258.7178 15.08827873197048
Source of the keplerian elements: AFSPC